Regional Weather Roundup
Issued by NWS

Home | Current Version | Previous Version | Graphics & Text | Print | Product List | Glossary On
Versions: 1 2 3 4 5 6 7 8 9 10 11 12 13 14 15 16 17 18 19 20 21 22 23 24 25 26 27
000
ASUS45 KPSR 180710
RWRAZ

ARIZONA HOURLY REGIONAL WEATHER ROUNDUP
NATIONAL WEATHER SERVICE PHOENIX AZ
1200 AM MST WED OCT 18 2017

NOTE: FAIR INDICATES FEW OR NO CLOUDS BELOW 12,000 FEET WITH NO
SIGNIFICANT WEATHER AND/OR OBSTRUCTIONS TO VISIBILITY.

AZZ001>003-036-180800-
NORTHWEST ARIZONA

CITY           SKY/WX    TMP DP  RH WIND       PRES   REMARKS
BULLHEAD CITY  CLEAR     73  16  11 CALM      29.90F
KINGMAN        PTCLDY    59  32  36 SE6       30.08F
$$

AZZ004>008-015-016-018-180800-
NORTH CENTRAL ARIZONA

CITY           SKY/WX    TMP DP  RH WIND       PRES   REMARKS
GRAND CANYON   MOCLDY    36  16  44 CALM      30.30S HAZE
WILLIAMS       MOCLDY    45  25  45 S6        30.30S
PRESCOTT       MOCLDY    53  36  52 S5        30.19F
FLAGSTAFF      PTCLDY    38  20  48 CALM      30.31F
PAYSON           N/A     59  36  41 CALM      30.21S
PAGE           PTCLDY    55  20  25 CALM      30.15S
$$

AZZ009>014-017-180800-
NORTHEAST ARIZONA

CITY           SKY/WX    TMP DP  RH WIND       PRES   REMARKS
WINSLOW        NOT AVBL
SAINT JOHNS    MOCLDY    57  32  38 S6        30.22F
WINDOW ROCK    MOCLDY    38   8  29 CALM      30.31S
SHOW LOW       MOCLDY    52  34  50 CALM      30.28F
$$

AZZ540-542>544-546-548-180800-
GREATER PHOENIX AREA

CITY           SKY/WX    TMP DP  RH WIND       PRES   REMARKS
PHOENIX        MOCLDY    81  48  31 CALM      29.90F
BUCKEYE        MOCLDY    73  32  21 N8        29.91F
LUKE AFB       MOCLDY    77  39  25 E3        29.90S
DEER VALLEY    MOCLDY    74  43  32 NE3       29.93S
SCOTTSDALE     MOCLDY    76  49  38 CALM      29.94F
MESA-GATEWAY   MOCLDY    72  45  37 CALM      29.94F
$$

AZZ539-553-180800-
SOUTHWEST MARICOPA COUNTY AND PINAL COUNTY

CITY           SKY/WX    TMP DP  RH WIND       PRES   REMARKS
CASA GRANDE    NOT AVBL
$$

AZZ503-504-507>509-180800-
SOUTHEAST ARIZONA

CITY           SKY/WX    TMP DP  RH WIND       PRES   REMARKS
TUCSON         MOCLDY    76  41  28 CALM      30.04S
DAVIS-MONTHAN  PTCLDY    77  37  24 VRB2      30.02S
NOGALES        CLOUDY    69  44  40 CALM      30.11S
SIERRA VISTA   CLOUDY    71  38  29 SW8       30.17S
DOUGLAS        MOCLDY    70  45  40 NW7       30.11F
SAFFORD        MOCLDY    65  38  36 CALM      30.04F
$$

AZZ532-180800-
SOUTHWEST ARIZONA

CITY           SKY/WX    TMP DP  RH WIND       PRES   REMARKS
YUMA           MOCLDY    73  37  27 S3        29.87F
$$

CAZ041-043-047-048-061-525>527-560>570-180800-
SOUTHERN CALIFORNIA

CITY           SKY/WX    TMP DP  RH WIND       PRES   REMARKS
DOWNTOWN L.A.  CLEAR     73  54  51 CALM      29.92S
L.A. AIRPORT   PTCLDY    70  57  63 SE3       29.93S
SAN DIEGO      MOCLDY    72  62  71 CALM      29.95S
BURBANK        CLEAR     76  43  30 E5        29.94S
ONTARIO        PTCLDY    73  38  27 CALM      29.96S
RIVERSIDE      CLEAR     68  47  46 NE5       29.96S
PALM SPRINGS   PTCLDY    78  33  19 CALM      29.91F
EL CENTRO NAS  MOCLDY    70  22  16 W3        29.87F
IMPERIAL       CLEAR     73  33  23 CALM      29.85F
BLYTHE         PTCLDY    74  18  12 NW5       29.89S
NEEDLES        CLEAR     73  10   9 CALM      29.92F
$$

NVZ020-UTZ003-180800-
SOUTHERN NEVADA-UTAH

CITY           SKY/WX    TMP DP  RH WIND       PRES   REMARKS
LAS VEGAS      PTCLDY    68  21  16 SW7       29.99F
SALT LAKE CITY MOCLDY    48  36  63 SE6       30.16S
$$

NMZ009-TXZ055-180800-
NEW MEXICO-WEST TEXAS

CITY           SKY/WX    TMP DP  RH WIND       PRES   REMARKS
ALBUQUERQUE    CLOUDY    55  27  34 NE8       30.22S
EL PASO        MOCLDY    66  42  41 CALM      30.12S
$$


........................KEY........................
SKY/WX - SKY CONDITION/WEATHER
TMP    - TEMPERATURE IN FAHRENHEIT
DP     - DEW POINT IN FAHRENHEIT
RH     - RELATIVE HUMIDITY IN PERCENT
WIND   - DIRECTION AND SPEED IN MILES PER HOUR (MPH)
VRB    - VARIABLE WIND DIRECTION
PRES   - MEAN SEA LEVEL PRESSURE IN INCHES OF MERCURY
         F - FALLING PRESSURE   R - RISING PRESSURE
         S - STEADY PRESSURE
VSB    - VISIBILITY IN MILES
HX     - HEAT INDEX IN FAHRENHEIT
WCI    - WIND CHILL INDEX IN FAHRENHEIT
TC     - TEMPERATURE IN CELSIUS WHICH IS ALSO KNOWN AS
         TEMPERATURE IN CENTIGRADE
AFB    - AIR FORCE BASE
         LUKE AFB IS LUKE AIR FORCE BASE
         DAVIS-MONTHAN IS DAVIS-MONTHAN AIR FORCE BASE
NAS    - NAVAL AIR STATION
         EL CENTRO NAS IS EL CENTRO NAVAL AIR STATION
N/A    - NOT AVAILABLE





USA.gov is the U.S. government's official web portal to all federal, state and local government web resources and services.